Time,TemperatureF,DewpointF,PressureIn,WindDirection,WindDirectionDegrees,WindSpeedMPH,WindSpeedGustMPH,Humidity,HourlyPrecipIn,Conditions,Clouds,dailyrainin,SolarRadiationWatts/m^2,SoftwareType,DateUTC
2013-02-20 00:00:00,16.0,14.0,-100.00,North,0,9.0,-999.0,94,-99.99,,,-99.99,0.000000,,2013-02-20 05:00:00,
2013-02-20 00:43:00,16.0,14.0,-100.00,North,0,9.0,-999.0,94,-99.99,,,-99.99,0.000000,,2013-02-20 05:43:00,
2013-02-20 00:52:00,16.0,14.0,-100.00,North,0,9.0,-999.0,94,-99.99,,,-99.99,0.000000,,2013-02-20 05:52:00,
2013-02-20 03:00:00,15.0,13.0,-100.00,NNE,22,8.0,-999.0,92,-99.99,,,-99.99,0.000000,,2013-02-20 08:00:00,
2013-02-20 03:42:00,15.0,13.0,-100.00,NNE,22,8.0,-999.0,92,-99.99,,,-99.99,0.000000,,2013-02-20 08:42:00,
2013-02-20 03:52:00,15.0,13.0,-100.00,NNE,22,8.0,-999.0,92,-99.99,,,-99.99,0.000000,,2013-02-20 08:52:00,
2013-02-20 06:00:00,16.0,14.0,-100.00,NE,45,8.0,-999.0,94,-99.99,,,-99.99,0.000000,,2013-02-20 11:00:00,
2013-02-20 06:42:00,16.0,14.0,-100.00,NE,45,8.0,-999.0,94,-99.99,,,-99.99,0.000000,,2013-02-20 11:42:00,
2013-02-20 06:52:00,16.0,14.0,-100.00,NE,45,8.0,-999.0,94,-99.99,,,-99.99,0.000000,,2013-02-20 11:52:00,
2013-02-20 09:00:00,16.0,14.0,-100.00,NE,45,8.0,-999.0,93,-99.99,,,-99.99,49.880001,,2013-02-20 14:00:00,
2013-02-20 09:42:00,16.0,14.0,-100.00,NE,45,8.0,-999.0,93,-99.99,,,-99.99,49.880001,,2013-02-20 14:42:00,
2013-02-20 09:52:00,16.0,14.0,-100.00,NE,45,8.0,-999.0,93,-99.99,,,-99.99,49.880001,,2013-02-20 14:52:00,
2013-02-20 12:00:00,20.0,11.0,-100.00,NE,45,13.0,-999.0,68,-99.99,,,-99.99,271.440002,,2013-02-20 17:00:00,
2013-02-20 12:42:00,20.0,11.0,-100.00,NE,45,13.0,-999.0,68,-99.99,,,-99.99,271.440002,,2013-02-20 17:42:00,
2013-02-20 12:52:00,20.0,11.0,-100.00,NE,45,13.0,-999.0,68,-99.99,,,-99.99,271.440002,,2013-02-20 17:52:00,
2013-02-20 15:00:00,22.0,12.0,-100.00,NNE,22,12.0,-999.0,65,-99.99,,,-99.99,262.160004,,2013-02-20 20:00:00,
2013-02-20 15:41:00,22.0,12.0,-100.00,NNE,22,12.0,-999.0,65,-99.99,,,-99.99,262.160004,,2013-02-20 20:41:00,
2013-02-20 15:52:00,22.0,12.0,-100.00,NNE,22,12.0,-999.0,65,-99.99,,,-99.99,262.160004,,2013-02-20 20:52:00,
2013-02-20 18:00:00,21.0,15.0,-100.00,NNE,22,11.0,-999.0,78,-99.99,,,-99.99,34.799999,,2013-02-20 23:00:00,
2013-02-20 18:42:00,21.0,15.0,-100.00,NNE,22,11.0,-999.0,78,-99.99,,,-99.99,34.799999,,2013-02-20 23:42:00,
2013-02-20 18:52:00,21.0,15.0,-100.00,NNE,22,11.0,-999.0,78,-99.99,,,-99.99,34.799999,,2013-02-20 23:52:00,
2013-02-20 21:00:00,21.0,14.0,-100.00,NE,45,9.0,-999.0,72,-99.99,,,-99.99,0.000000,,2013-02-21 02:00:00,